Location: Saline Junction
(37.7889°N, 89.8868°W)
Time: 05:43:12
(UTC+00:00)

Daily predictions for brighter satellites

Satellite Brightness Start Highest point End
(mag) Time Altitude Azimuth Time Altitude Azimuth Time Altitude Azimuth
NOSS 2-3 (E) 3.5 00:00:39 10° SW 00:04:21 59° NW 00:06:39 21° NNE
NOSS 2-3 (D) 3.5 00:02:23 10° SW 00:06:07 63° WNW 00:08:20 22° NNE
Okean 1 4.5 00:03:05 10° SSE 00:04:57 22° ESE 00:04:57 22° ESE
Resurs 1-3 4.0 00:02:34 10° SE 00:06:33 38° ENE 00:10:32 10° N
COSMO-SKYMED 1 2.5 00:04:34 21° NNE 00:07:08 52° E 00:11:08 10° S
Cosmos 783 Rocket 4.5 00:02:52 10° NNW 00:08:11 90° NE 00:13:28 10° SSE
Cosmos 2263 Rocket 2.8 00:03:22 10° N 00:08:26 32° ENE 00:10:29 25° E
Cosmos 1900 4.2 00:07:35 10° NNW 00:12:37 72° ENE 00:17:30 10° SE
COSMOS 2455 4.1 00:09:12 10° SSE 00:13:09 21° ESE 00:13:09 21° ESE
Cosmos 1538 Rocket 4.4 00:11:36 10° N 00:16:31 38° ENE 00:18:32 28° ESE
Cosmos 1553 Rocket 4.2 00:11:04 10° SSE 00:16:46 43° E 00:21:03 18° NNE
Cosmos 1726 Rocket 4.3 00:16:59 10° SSW 00:21:33 56° W 00:26:06 10° N
Cosmos 2227 Rocket 2.1 00:16:10 10° NNW 00:21:50 75° ENE 00:27:27 10° SSE
Meteor 2-2 Rocket 4.1 00:22:57 10° S 00:28:34 65° E 00:32:13 22° NNE
SL-19 R/B 4.1 00:24:40 10° SSE 00:29:52 63° ENE 00:35:21 10° N
Cosmos 1697 Rocket 4.1 00:27:04 10° SW 00:32:08 35° WNW 00:37:15 10° N
ATLAS CENTAUR R/B 3.9 00:30:31 10° WNW 00:32:27 15° WSW 00:34:20 10° SSW
SKYMED 2 4.5 00:28:54 10° N 00:33:04 47° WNW 00:37:13 10° SSW
Spot 4 Rocket 3.9 00:28:01 10° SSE 00:33:06 82° ENE 00:38:14 10° NNW
YAOGAN 1 2.4 00:30:15 10° SSE 00:34:30 86° ENE 00:38:46 10° N
SJ-7 4.4 00:31:48 10° SSE 00:39:34 - NNW 00:34:46 57° SSE
H-II Stage 2 4.3 00:31:56 10° W 00:38:17 20° SW 00:41:02 10° SSE
IRAS Rocket 4.0 00:36:12 10° SSE 00:41:41 78° ENE 00:47:10 10° NNW
Cosmos 1898 Rocket 3.3 00:37:31 10° SSW 00:42:39 89° ESE 00:44:16 46° NNE
Cosmos 1244 Rocket 4.3 00:37:34 10° N 00:43:49 68° E 00:49:58 10° SSE
DMSP B5D1-3 4.3 00:44:15 64° ENE 00:44:42 68° ESE 00:49:43 10° S
Cosmos-2242 3.3 00:45:28 10° SSW 00:49:38 62° W 00:50:38 46° NNW
Meteor 2-10 4.2 00:49:42 10° NNW 00:55:07 79° W 01:00:41 10° S
BREEZE-M DEB (TANK) 4.3 00:51:32 10° NW 00:56:07 54° NE 00:58:34 44° E
Helios 1A Rocket 4.2 00:59:45 31° WSW 00:59:45 31° WSW 01:02:08 10° SW
SL-08 R/B 4.3 00:55:15 10° N 01:01:36 79° E 01:07:56 10° S
Cosmos 2237 4.4 00:58:30 10° SSW 01:03:16 59° SSE 01:03:16 59° SSE
Cosmos 1937 Rocket 3.4 00:59:07 10° SSW 01:04:15 80° W 01:04:15 80° W
SL-16 R/B 4.0 01:08:56 10° S 01:10:23 18° S 01:10:23 18° S
Cosmos 967 Rocket 4.4 01:08:05 10° SSW 01:14:25 84° WNW 01:14:48 79° N
Cosmos 1980 Rocket 4.1 01:30:25 10° WSW 01:35:00 25° WNW 01:36:57 21° NNW
Cosmos 2263 Rocket 3.7 01:47:14 10° NW 01:52:15 33° WSW 01:52:20 33° WSW
COSMOS 2455 4.3 01:53:07 10° SW 01:56:21 32° WSW 01:56:21 32° WSW
CZ-3 R/B 4.0 09:25:11 56° SW 09:27:07 58° SSW 09:38:04 10° SE
COSMOS 2406 4.3 10:01:54 41° E 10:01:54 41° E 10:06:43 10° NE
Cosmos 2082 Rocket 4.3 10:10:40 17° NNE 10:10:40 17° NNE 10:11:49 10° NNE
CZ-3 Stage 3 4.0 10:07:38 53° SW 10:10:00 62° S 10:41:51 10° ESE
USA 59 Rocket 2.1 10:11:24 25° ENE 10:11:24 25° ENE 10:14:33 10° ESE
Cosmos 967 Rocket 4.5 10:24:59 79° SSE 10:24:59 79° SSE 10:30:58 10° SSE
Cosmos 1980 Rocket 3.0 10:32:10 39° S 10:32:10 39° S 10:35:37 10° SSE
Cosmos 2180 Rocket 4.4 10:33:48 52° N 10:35:31 89° E 10:41:53 10° S
Cosmos 2369 3.7 10:39:08 64° N 10:39:58 77° ENE 10:45:37 10° SSE
NOSS 2-1 (C) 4.4 10:40:19 43° ENE 10:40:19 43° ENE 10:45:04 10° SE
FengYun 1-2 T 4.3 10:35:11 10° NNE 10:40:52 78° ESE 10:46:30 10° S
BREEZE-M DEB (TANK) 3.9 10:44:56 55° NW 10:46:16 76° NNE 10:50:02 10° ESE
Cosmos 1892 Rocket 4.4 10:44:07 10° SSE 10:48:18 49° E 10:52:33 10° NNE
COSMO-SKYMED 1 4.4 10:50:40 10° SE 10:54:09 27° ENE 10:57:40 10° NNE
Cosmos 2142 Rocket 4.4 10:56:52 53° WNW 10:57:34 56° W 11:03:34 10° SSW
COSMOS 2455 2.7 10:59:43 45° NW 11:01:39 79° WSW 11:07:38 10° SSE
Cosmos 2360 Rocket 4.3 10:57:47 10° N 11:02:08 22° NE 11:06:28 10° ESE
Cosmos 2333 Rocket 3.6 10:59:11 10° N 11:04:26 35° ENE 11:09:38 10° SE
NOSS 3-1 (C) 4.2 11:01:55 24° NNW 11:07:06 78° ENE 11:16:18 10° SE
Cosmos 1092 Rocket 4.3 11:04:51 10° S 11:11:06 70° E 11:17:18 10° NNE
Cosmos 1898 Rocket 3.4 11:10:26 45° NW 11:11:55 64° WSW 11:17:07 10° S
Cosmos 1428 Rocket 4.4 11:06:24 10° SSW 11:12:32 65° W 11:18:47 10° N
Nadezhda 4 Rocket 4.0 11:07:22 10° SSW 11:13:30 53° W 11:19:37 10° N
IRS-1D 3.4 11:12:59 10° N 11:18:00 70° WNW 11:23:05 10° SSW
SL-24 R/B 4.2 11:13:57 10° N 11:19:07 81° WNW 11:23:34 10° SSW
SKYMED 2 3.4 11:21:30 10° S 11:25:50 79° WSW 11:29:04 18° NNW
Cosmos 2322 Rocket 3.5 11:20:40 10° N 11:25:59 39° ENE 11:31:14 10° SE
OAO 2 Rocket 4.3 11:23:46 17° SW 11:27:23 42° SSE 11:32:13 10° E
Helios 1A Rocket 3.1 11:24:12 10° SSE 11:27:27 54° ENE 11:30:06 15° N
Cosmos 2195 Rocket 4.5 11:21:49 10° SSW 11:27:58 62° W 11:34:14 10° N
Cosmos 2058 Rocket 3.5 11:24:53 10° N 11:29:17 62° E 11:33:36 10° SSE
Okean 1 4.1 11:29:16 10° N 11:32:42 45° E 11:36:07 10° SSE
Cosmos 1937 Rocket 3.5 11:29:56 25° NW 11:32:47 56° WSW 11:37:47 10° S
Cosmos 858 Rocket 4.4 11:30:01 16° NNW 11:34:16 80° WSW 11:39:27 10° SSE
Meteor 2-20 4.3 11:28:42 10° N 11:34:49 84° W 11:40:52 10° S
Meteor 2-3 Rocket 4.0 11:34:49 10° SSW 11:40:15 43° WNW 11:45:40 10° N
Cosmos 1606 Rocket 4.4 11:42:54 27° WNW 11:43:22 28° W 11:47:05 10° SSW
SL-4 R/B 3.9 11:43:26 11° N 11:44:42 13° NNE 11:46:11 10° NE
COSMOS 2406 4.1 11:44:05 22° W 11:45:48 26° WNW 11:50:31 10° N
CZ-4 R/B 4.1 11:41:44 10° N 11:46:01 39° WNW 11:50:17 10° SW
Meteor 1-26 Rocket 4.2 11:42:04 10° N 11:47:40 86° W 11:53:25 10° S
Cosmos 405 Rocket 2.4 11:47:34 10° S 11:50:47 76° E 11:54:04 10° NNE
Cosmos 2082 Rocket 4.0 11:52:33 12° NNW 11:52:33 12° NNW 11:53:32 10° NNW
Tiangong -0.7 11:51:40 21° WSW 11:52:51 27° SSW 11:55:39 10° SSE
SL-16 R/B 2.2 11:48:33 10° NNW 11:54:09 68° WSW 11:59:45 10° S
Cosmos 1814 Rocket 3.9 11:49:00 10° SSW 11:54:11 70° WNW 11:59:27 10° NNE
